CAPE
616 826 1129 1240 1185 1178 991 982 1111 1457 1886 2014 1622 1639 2015 2589 3057 2770 2218 1675 1165 540 405 471 512 1279 925 564 387 115 31 20 0 0 0 0 0 0 0 0 0 0 8
518 718 827 1078 1818 1937 1663 1533 1422 1375 1790 2005 2317 2841 2961 2874 2980 3098 2156 1570 1106 1014 872 569 817 993 658 411 309 32 1 0 0 0 0 0 0 0 0 0 0 0 0
708 835 1018 909 953 1463 2057 2175 2177 2197 2091 2137 2204 2414 2666 3083 3263 3054 2325 1767 1680 1346 994 895 946 885 882 261 0 0 0 0 0 0 0 0 0 0 0 0 0 0 0
825 1021 1263 1646 1543 1431 1547 1924 2295 2587 2788 2912 3085 3213 3408 3495 3527 2900 2215 2056 1718 1138 738 1026 1225 615 525 22 0 0 0 0 0 0 0 0 0 0 0 0 0 0 0
1228 1396 1393 1603 1874 1999 2242 2321 2424 2701 2940 3159 3374 3648 3870 3969 3612 2973 2775 2458 1623 870 1221 1343 736 439 28 0 0 0 0 0 0 0 0 0 0 0 0 0 0 0 0
1575 1756 1806 1868 1990 2143 2317 2593 2890 3047 3334 3644 3950 4152 4202 3914 3778 3359 2941 2293 1467 953 1007 710 107 37 0 0 0 0 0 0 0 0 0 0 0 0 0 0 0 0 0
1509 1671 1837 1978 2089 2275 2549 2700 3072 3392 3742 4123 4393 4345 4027 3644 3255 2920 2352 2011 1045 1542 1006 130 170 0 0 0 0 0 0 0 0 0 0 0 0 0 0 0 0 0 0
1108 1441 1645 1858 1928 2009 2912 3058 3349 3645 3966 4184 4152 4037 3590 2922 2713 2276 1866 1711 1052 1185 188 21 0 0 0 0 0 0 0 0 0 0 0 0 0 0 0 0 0 0 0
629 1022 1431 1764 2126 2363 2726 3314 3698 4012 4196 4294 3927 3388 3258 2771 2285 2038 1814 1413 1218 336 8 0 0 0 0 0 0 0 0 0 0 0 0 0 6 0 0 0 0 0 0
795 939 1371 1853 2450 3113 3201 3394 3823 4113 4132 3462 3448 3384 2896 2352 2156 1919 1754 1214 603 12 0 0 0 0 0 0 0 0 0 0 0 0 0 0 5 0 0 0 0 0 0
1516 1972 2252 2552 2950 3343 3662 3823 4073 3993 3701 3243 3565 3110 2140 1785 1825 1701 1119 525 297 65 0 0 0 0 0 0 0 0 0 0 0 0 0 0 9 0 0 0 0 0 0
2687 3122 3178 3339 3532 3650 3840 3958 3874 3697 3452 2389 2412 2497 2060 2517 1607 1137 414 396 164 2 0 0 0 0 0 0 0 0 0 0 0 0 0 0 0 0 0 0 0 0 0
3061 3565 3782 3785 3837 3915 3899 3792 3694 3537 2929 1895 2801 2031 1582 1781 1208 650 265 11 0 0 0 0 0 0 0 0 0 0 0 0 0 0 0 0 0 0 0 0 0 0 0
3360 3758 3953 3941 3908 3856 3765 3631 3510 3083 2426 2545 1946 1313 1772 1180 928 348 92 0 0 0 0 0 0 0 0 0 0 0 0 0 0 0 0 0 0 0 0 0 0 0 0
3638 3847 3932 3934 3884 3825 3691 3497 3271 2685 1793 1877 1449 1348 1188 1081 563 259 107 0 0 0 0 0 0 0 0 0 0 0 0 0 0 0 0 0 0 0 0 0 0 0 0
3784 3820 3785 3718 3697 3619 3469 3288 3241 2554 1842 1565 1514 1125 1158 800 406 285 92 0 0 0 0 0 0 0 0 0 0 0 0 0 0 0 0 0 0 0 0 0 0 0 0
3614 3680 3613 3529 3469 3359 3085 3714 3516 2039 1828 1383 1300 1452 946 547 278 126 7 0 0 0 0 0 0 0 0 0 0 0 0 0 0 0 0 0 0 0 0 0 0 0 0
3425 3392 3311 3378 3291 2933 3479 3234 2841 1705 1178 1274 1458 1090 719 479 229 64 0 0 0 0 0 0 0 0 0 0 0 0 0 0 0 0 0 0 0 0 0 0 0 0 0
3316 3121 3161 3197 3018 2528 3243 2977 2579 2045 1296 1340 1143 691 521 398 201 5 0 0 0 0 0 0 0 0 0 0 0 0 0 0 0 0 0 0 0 0 0 0 0 0 0
3344 3177 2919 2938 2361 3287 2884 2725 1902 1781 1367 1203 711 209 168 180 68 0 0 0 0 0 0 0 0 0 0 0 0 0 0 0 0 0 0 0 0 0 0 0 0 0 0
2923 2739 2658 2952 2882 2935 2808 2447 1725 2025 1390 1145 758 107 0 0 0 0 0 0 0 0 0 0 0 0 0 0 0 0 0 0 0 0 0 0 0 0 0 0 0 0 0
3103 3069 2436 2670 2631 2684 2403 1888 1915 2036 1336 1155 724 214 8 0 0 0 0 0 0 0 0 0 0 0 0 0 0 0 0 0 0 0 0 0 0 0 0 0 0 0 0
2599 2809 2151 1845 2047 1929 1552 1584 1863 2103 1503 1180 993 359 256 22 0 0 0 0 0 0 0 0 0 0 0 0 0 0 0 0 0 0 0 0 0 0 0 0 0 0 0
2201 2190 2131 1709 1429 1457 1400 987 1349 1784 1682 1448 1400 837 466 295 0 0 0 0 0 0 0 0 0 0 0 0 0 0 0 0 0 0 0 0 0 0 0 0 0 0 0
1728 1691 1800 1742 1713 1414 981 1427 1632 1277 1270 1331 1559 1279 771 546 79 0 0 0 0 0 0 0 0 0 0 0 0 0 0 0 0 0 0 0 0 0 0 0 0 0 0
1502 1529 1632 1953 1759 1555 1339 1286 1545 1451 1286 1504 1422 1197 1039 684 336 0 0 0 0 0 0 0 0 0 0 0 0 0 0 0 0 0 0 0 0 0 0 0 0 0 0
CIN
-378 -311 -254 -241 -254 -268 -327 -353 -322 -243 -153 -116 -155 -170 -89 -90 -38 -31 -14 -25 -91 -130 -111 -93 -66 -10 -14 -26 -20 -50 -86 -40 0 0 0 0 0 0 0 0 0 0 -4
-430 -362 -328 -280 -217 -222 -267 -304 -298 -321 -287 -205 -107 -37 -21 -27 -11 -25 -12 -15 -35 -31 -76 -58 -19 -13 -26 -16 -4 -64 -3 0 0 0 0 0 0 0 0 0 0 0 0
-421 -381 -352 -382 -411 -370 -263 -229 -225 -238 -216 -186 -155 -108 -53 -18 -8 -8 -6 -15 -22 -31 -55 -25 -16 -11 -2 -17 0 0 0 0 0 0 0 0 0 0 0 0 0 0 0
-428 -394 -366 -357 -396 -413 -371 -307 -257 -205 -157 -122 -75 -23 -5 -3 -7 -9 -7 -1 -23 -50 -58 -10 -4 -22 -5 -23 0 0 0 0 0 0 0 0 0 0 0 0 0 0 0
-406 -398 -419 -402 -371 -349 -315 -295 -276 -211 -157 -103 -54 -13 -7 -8 -6 -7 0 -3 -14 -68 -31 -3 -13 -1 -21 0 0 0 0 0 0 0 0 0 0 0 0 0 0 0 0
-394 -399 -400 -398 -389 -362 -336 -294 -228 -184 -140 -62 -14 -7 -11 -3 -2 0 0 -2 -18 -45 -3 -5 -160 -179 0 0 0 0 0 0 0 0 0 0 0 0 0 0 0 0 0
-404 -419 -424 -411 -399 -389 -329 -304 -231 -170 -101 -29 -4 -6 -4 -4 -1 0 -3 -4 -53 -1 -1 -185 -91 0 0 0 0 0 0 0 0 0 0 0 0 0 0 0 0 0 0
-457 -469 -474 -463 -440 -419 -327 -278 -219 -152 -72 -28 -21 -11 -16 -32 -14 -22 -11 -7 -34 -3 -197 -114 0 0 0 0 0 0 0 0 0 0 0 0 0 0 0 0 0 0 0
-534 -530 -525 -535 -496 -467 -380 -260 -174 -108 -48 -30 -27 -38 -35 -37 -38 -22 -4 -13 -8 -160 -76 0 0 0 0 0 0 0 0 0 0 0 0 -1 -5 0 0 0 0 0 0
-583 -603 -612 -572 -485 -379 -322 -236 -160 -87 -49 -68 -51 -43 -59 -65 -42 -19 -2 -27 -101 -453 0 0 0 0 0 0 0 0 0 0 0 0 0 0 -9 0 0 0 0 0 0
-501 -522 -549 -492 -428 -342 -241 -160 -112 -77 -72 -82 -46 -61 -113 -105 -60 -31 -72 -164 -205 -343 0 0 0 0 0 0 0 0 0 0 0 0 0 0 -11 0 0 0 0 0 0
-495 -438 -432 -398 -346 -271 -195 -138 -114 -92 -90 -170 -143 -113 -102 -30 -70 -83 -205 -186 -305 -56 0 0 0 0 0 0 0 0 0 0 0 0 0 0 0 0 0 0 0 0 0
-346 -354 -309 -278 -250 -193 -162 -147 -120 -101 -147 -255 -109 -156 -161 -88 -119 -163 -304 -34 0 0 0 0 0 0 0 0 0 0 0 0 0 0 0 0 0 0 0 0 0 0 0
-329 -324 -256 -232 -192 -164 -139 -145 -128 -151 -214 -168 -205 -267 -139 -170 -147 -291 -430 0 0 0 0 0 0 0 0 0 0 0 0 0 0 0 0 0 0 0 0 0 0 0 0
-292 -277 -245 -210 -168 -143 -118 -114 -122 -178 -302 -261 -293 -264 -247 -178 -203 -363 -404 0 0 0 0 0 0 0 0 0 0 0 0 0 0 0 0 0 0 0 0 0 0 0 0
-225 -235 -240 -207 -183 -146 -125 -125 -104 -148 -227 -254 -237 -294 -198 -189 -271 -313 -408 0 0 0 0 0 0 0 0 0 0 0 0 0 0 0 0 0 0 0 0 0 0 0 0
-189 -194 -221 -200 -175 -147 -151 -78 -76 -189 -186 -247 -226 -165 -200 -234 -311 -409 -78 0 0 0 0 0 0 0 0 0 0 0 0 0 0 0 0 0 0 0 0 0 0 0 0
-173 -179 -188 -179 -166 -165 -92 -101 -122 -244 -324 -276 -185 -210 -235 -239 -324 -459 0 0 0 0 0 0 0 0 0 0 0 0 0 0 0 0 0 0 0 0 0 0 0 0 0
-100 -126 -139 -140 -138 -187 -82 -90 -114 -175 -256 -226 -222 -286 -289 -272 -319 -212 0 0 0 0 0 0 0 0 0 0 0 0 0 0 0 0 0 0 0 0 0 0 0 0 0
-51 -75 -107 -93 -161 -64 -80 -75 -192 -186 -213 -223 -289 -478 -455 -396 -494 0 0 0 0 0 0 0 0 0 0 0 0 0 0 0 0 0 0 0 0 0 0 0 0 0 0
-33 -43 -41 -35 -54 -57 -50 -88 -204 -129 -195 -223 -263 -536 0 0 0 0 0 0 0 0 0 0 0 0 0 0 0 0 0 0 0 0 0 0 0 0 0 0 0 0 0
-6 -4 -25 -18 -27 -35 -60 -143 -136 -102 -179 -191 -250 -412 -234 0 0 0 0 0 0 0 0 0 0 0 0 0 0 0 0 0 0 0 0 0 0 0 0 0 0 0 0
-1 -2 -15 -40 -42 -71 -117 -166 -94 -73 -131 -154 -162 -327 -345 -264 0 0 0 0 0 0 0 0 0 0 0 0 0 0 0 0 0 0 0 0 0 0 0 0 0 0 0
0 0 0 -12 -58 -78 -100 -240 -144 -79 -83 -99 -107 -190 -255 -274 0 0 0 0 0 0 0 0 0 0 0 0 0 0 0 0 0 0 0 0 0 0 0 0 0 0 0
0 0 0 -7 -14 -60 -141 -139 -80 -101 -113 -90 -68 -106 -183 -210 -392 0 0 0 0 0 0 0 0 0 0 0 0 0 0 0 0 0 0 0 0 0 0 0 0 0 0
0 0 0 0 -6 -10 -90 -153 -80 -68 -86 -36 -48 -86 -112 -155 -209 0 0 0 0 0 0 0 0 0 0 0 0 0 0 0 0 0 0 0 0 0 0 0 0 0 0
Wind_Speed
8 6 5 4 5 4 7 10 11 14 21 22 21 25 31 38 38 45 51 48 35 25 25 26 26 28 30 31 33 36 nan nan nan nan nan nan nan nan nan nan nan nan nan
8 7 7 4 3 8 8 9 7 18 20 23 25 28 33 39 40 49 50 42 38 33 32 27 28 32 36 38 41 nan nan nan nan nan nan nan nan nan nan nan nan nan nan
5 6 4 6 10 10 7 7 13 18 20 25 28 32 32 39 42 48 46 41 32 31 37 39 40 45 44 45 nan nan nan nan nan nan nan nan nan nan nan nan nan nan nan
5 4 3 7 12 11 9 13 18 20 23 27 31 32 36 42 45 48 42 39 39 41 42 42 44 44 47 nan nan nan nan nan nan nan nan nan nan nan nan nan nan nan nan
3 0 6 12 14 13 13 16 19 24 26 29 29 30 37 41 45 43 37 41 40 39 38 38 41 46 nan nan nan nan nan nan nan nan nan nan nan nan nan nan nan nan nan
4 3 11 14 13 15 16 15 18 22 26 28 32 36 37 35 49 45 40 41 41 42 41 40 41 nan nan nan nan nan nan nan nan nan nan nan nan nan nan nan nan nan nan
8 11 12 11 14 14 13 12 16 21 23 28 32 37 37 38 44 42 43 40 41 42 43 41 41 nan nan nan nan nan nan nan nan nan nan nan nan nan nan nan nan nan nan
16 15 14 13 12 8 10 13 16 18 23 27 28 34 41 38 44 42 42 40 40 40 39 nan nan nan nan nan nan nan nan nan nan nan nan nan nan nan nan nan nan nan nan
18 16 12 10 8 6 9 11 12 17 21 24 30 34 44 41 42 42 42 38 39 37 nan nan nan nan nan nan nan nan nan nan nan nan nan nan nan nan nan nan nan nan nan
17 14 9 4 3 5 9 12 12 16 23 28 29 31 44 44 42 42 40 38 40 nan nan nan nan nan nan nan nan nan nan nan nan nan nan nan nan nan nan nan nan nan nan
17 15 11 5 4 8 12 12 17 22 24 28 34 36 43 46 40 43 41 38 39 nan nan nan nan nan nan nan nan nan nan nan nan nan nan nan nan nan nan nan nan nan nan
19 14 12 9 9 14 20 19 23 25 29 32 36 37 41 43 39 38 39 40 38 nan nan nan nan nan nan nan nan nan nan nan nan nan nan nan nan nan nan nan nan nan nan
17 13 14 17 18 21 24 26 26 26 30 33 35 39 42 37 32 39 43 nan nan nan nan nan nan nan nan nan nan nan nan nan nan nan nan nan nan nan nan nan nan nan nan
17 14 18 19 20 25 24 27 26 26 31 33 35 40 43 34 31 32 nan nan nan nan nan nan nan nan nan nan nan nan nan nan nan nan nan nan nan nan nan nan nan nan nan
26 24 22 23 22 25 28 26 26 27 34 35 37 42 47 33 32 37 37 nan nan nan nan nan nan nan nan nan nan nan nan nan nan nan nan nan nan nan nan nan nan nan nan
38 32 28 26 27 27 27 27 28 26 38 38 42 42 38 34 38 41 nan nan nan nan nan nan nan nan nan nan nan nan nan nan nan nan nan nan nan nan nan nan nan nan nan
35 37 35 34 36 33 31 33 33 30 36 40 48 48 44 37 40 41 nan nan nan nan nan nan nan nan nan nan nan nan nan nan nan nan nan nan nan nan nan nan nan nan nan
39 40 36 35 39 37 35 37 38 40 41 40 37 43 45 40 40 nan nan nan nan nan nan nan nan nan nan nan nan nan nan nan nan nan nan nan nan nan nan nan nan nan nan
49 44 42 42 42 41 41 43 41 43 46 46 41 39 31 35 36 nan nan nan nan nan nan nan nan nan nan nan nan nan nan nan nan nan nan nan nan nan nan nan nan nan nan
46 46 47 47 46 45 46 47 47 49 50 46 42 37 29 31 nan nan nan nan nan nan nan nan nan nan nan nan nan nan nan nan nan nan nan nan nan nan nan nan nan nan nan
45 45 49 48 47 47 49 50 51 52 48 42 39 31 nan nan nan nan nan nan nan nan nan nan nan nan nan nan nan nan nan nan nan nan nan nan nan nan nan nan nan nan nan
45 47 47 49 49 50 52 52 50 46 43 39 33 27 nan nan nan nan nan nan nan nan nan nan nan nan nan nan nan nan nan nan nan nan nan nan nan nan nan nan nan nan nan
42 45 47 47 47 48 47 46 42 40 38 34 30 26 26 nan nan nan nan nan nan nan nan nan nan nan nan nan nan nan nan nan nan nan nan nan nan nan nan nan nan nan nan
47 42 45 47 44 42 41 40 38 37 36 31 27 26 26 23 nan nan nan nan nan nan nan nan nan nan nan nan nan nan nan nan nan nan nan nan nan nan nan nan nan nan nan
48 45 39 44 42 42 41 41 38 37 31 28 28 28 26 25 nan nan nan nan nan nan nan nan nan nan nan nan nan nan nan nan nan nan nan nan nan nan nan nan nan nan nan
50 44 45 43 49 47 45 40 40 38 31 30 30 29 27 24 23 nan nan nan nan nan nan nan nan nan nan nan nan nan nan nan nan nan nan nan nan nan nan nan nan nan nan
Wind_Direction
39 27 26 46 58 45 58 61 66 75 61 52 38 28 21 16 2 353 348 360 10 10 344 339 359 348 338 340 340 341 nan nan nan nan nan nan nan nan nan nan nan nan nan
23 23 29 54 79 81 71 67 52 60 52 41 27 26 17 12 4 352 354 358 5 9 340 349 357 344 341 345 350 nan nan nan nan nan nan nan nan nan nan nan nan nan nan
354 21 29 69 101 94 89 70 62 54 45 36 24 16 14 10 6 352 357 357 2 342 348 359 353 347 344 349 nan nan nan nan nan nan nan nan nan nan nan nan nan nan nan
348 11 56 99 98 98 85 74 57 41 33 29 22 13 12 10 0 356 350 347 348 351 351 351 344 341 343 nan nan nan nan nan nan nan nan nan nan nan nan nan nan nan nan
303 303 103 105 105 101 85 62 49 37 30 23 20 15 13 10 355 350 345 345 344 340 343 340 341 337 nan nan nan nan nan nan nan nan nan nan nan nan nan nan nan nan nan
221 147 122 117 108 87 72 53 45 38 30 20 17 17 11 357 345 343 341 342 337 339 338 340 337 nan nan nan nan nan nan nan nan nan nan nan nan nan nan nan nan nan nan
177 146 128 108 89 80 67 39 34 25 14 12 13 8 355 347 340 337 336 338 340 338 339 341 339 nan nan nan nan nan nan nan nan nan nan nan nan nan nan nan nan nan nan
154 131 111 97 89 87 54 31 21 9 7 7 355 351 349 348 338 333 329 336 338 337 338 nan nan nan nan nan nan nan nan nan nan nan nan nan nan nan nan nan nan nan nan
126 117 119 102 82 36 10 9 3 353 357 346 346 345 346 346 339 331 329 332 331 333 nan nan nan nan nan nan nan nan nan nan nan nan nan nan nan nan nan nan nan nan nan
130 133 150 144 87 12 345 340 336 336 336 342 339 342 343 340 334 329 329 333 331 nan nan nan nan nan nan nan nan nan nan nan nan nan nan nan nan nan nan nan nan nan nan
179 183 189 198 291 307 297 295 306 318 324 324 333 342 338 337 335 328 329 334 337 nan nan nan nan nan nan nan nan nan nan nan nan nan nan nan nan nan nan nan nan nan nan
207 218 223 253 277 271 284 287 301 313 317 317 326 334 334 335 331 328 327 328 337 nan nan nan nan nan nan nan nan nan nan nan nan nan nan nan nan nan nan nan nan nan nan
227 237 261 258 255 264 280 288 294 306 314 317 323 328 331 331 331 327 327 nan nan nan nan nan nan nan nan nan nan nan nan nan nan nan nan nan nan nan nan nan nan nan nan
247 253 262 274 278 272 271 281 294 303 307 315 324 325 329 326 329 326 nan nan nan nan nan nan nan nan nan nan nan nan nan nan nan nan nan nan nan nan nan nan nan nan nan
241 248 256 261 278 273 268 275 288 296 305 317 322 323 328 325 333 326 328 nan nan nan nan nan nan nan nan nan nan nan nan nan nan nan nan nan nan nan nan nan nan nan nan
247 246 251 256 261 268 275 275 260 282 299 309 313 318 320 315 319 321 nan nan nan nan nan nan nan nan nan nan nan nan nan nan nan nan nan nan nan nan nan nan nan nan nan
244 248 246 253 261 271 278 285 291 275 284 304 312 313 315 317 317 318 nan nan nan nan nan nan nan nan nan nan nan nan nan nan nan nan nan nan nan nan nan nan nan nan nan
246 247 248 252 258 268 278 284 289 297 302 298 293 312 312 313 316 nan nan nan nan nan nan nan nan nan nan nan nan nan nan nan nan nan nan nan nan nan nan nan nan nan nan
244 245 247 252 257 265 273 279 285 288 292 294 294 290 296 303 308 nan nan nan nan nan nan nan nan nan nan nan nan nan nan nan nan nan nan nan nan nan nan nan nan nan nan
249 253 249 252 256 263 270 275 280 280 283 290 296 300 292 292 nan nan nan nan nan nan nan nan nan nan nan nan nan nan nan nan nan nan nan nan nan nan nan nan nan nan nan
245 246 253 251 257 260 266 272 271 274 278 287 292 291 nan nan nan nan nan nan nan nan nan nan nan nan nan nan nan nan nan nan nan nan nan nan nan nan nan nan nan nan nan
249 253 255 257 256 259 263 265 267 268 275 283 278 283 nan nan nan nan nan nan nan nan nan nan nan nan nan nan nan nan nan nan nan nan nan nan nan nan nan nan nan nan nan
249 253 254 253 254 256 259 260 257 261 272 275 281 278 278 nan nan nan nan nan nan nan nan nan nan nan nan nan nan nan nan nan nan nan nan nan nan nan nan nan nan nan nan
237 249 255 254 254 252 249 248 252 261 267 273 278 273 276 279 nan nan nan nan nan nan nan nan nan nan nan nan nan nan nan nan nan nan nan nan nan nan nan nan nan nan nan
234 235 251 255 251 247 245 246 246 255 263 270 270 264 271 272 nan nan nan nan nan nan nan nan nan nan nan nan nan nan nan nan nan nan nan nan nan nan nan nan nan nan nan
232 235 240 248 245 240 241 242 245 252 257 263 264 261 263 265 269 nan nan nan nan nan nan nan nan nan nan nan nan nan nan nan nan nan nan nan nan nan nan nan nan nan nan